アトラス彗星

P/2019 LD2 ( ATLAS )

English version
Home page
Updated on July 8, 2020

---------------------------------------------------------------------

・ プロフィール

発見日 2019年6月10日
発見光度 18.4等
発見者 Asteroid Terrestrial-Impact Last Alert System (ATLAS) search program

・ 写真集

・ 軌道要素

Epoch 2020 Apr. 21.0 TT = JDT 2458960.5
T 2020 Apr. 10.58181 TT                                 Rudenko
q   4.5780387            (2000.0)            P               Q
n   0.08082559     Peri.  123.42272     +0.54771095     +0.83666728
a   5.2978965      Node   179.78301     -0.81862215     +0.53608471
e   0.1358762      Incl.   11.54636     -0.17283080     +0.11225437
P  12.2
From 162 observations 2018 May 21-2020 May 31, mean residual 0".4.

・ 光度変化

        m1 = 1.7 + 5 logΔ + 20.0 log r

---------------------------------------------------------------------

軌道要素はM.P.E.C. 2020-L06に掲載されたものです。
光度グラフはComet for Windowsで作成したものです。

---------------------------------------------------------------------

Copyright(C) Seiichi Yoshida (comet@aerith.net). All rights reserved.